EJU64LX LICC-LIRN

Flight info

Callsign EJU64LX
Flight time 0h 39m
Altitude 32000
Route BUDIN DCT DIRED DCT NAXES T92 SOR
Aircraft A320/M-SDE3FGHIRWY/LB1

Departure

Time 2026-05-06 19:46
Airport Catania-Fontanarossa Airport (LICC)

Arrival

Time 2026-05-06 20:25
Airport Naples International Airport (LIRN)
Time Latitude Longitude Altitude Speed Heading
2026-05-06 19:34 37.46945 15.06863 31 ft 0 kts 354°
2026-05-06 19:38 37.46940 15.06863 31 ft 3 kts 354°
2026-05-06 19:38 37.46914 15.06868 31 ft 4 kts 348°
2026-05-06 19:39 37.46888 15.06876 30 ft 4 kts 335°
2026-05-06 19:39 37.46868 15.06895 31 ft 4 kts 282°
2026-05-06 19:39 37.46867 15.06903 28 ft 0 kts 264°
2026-05-06 19:41 37.46865 15.06883 29 ft 7 kts 264°
2026-05-06 19:41 37.46857 15.06785 33 ft 12 kts 264°
2026-05-06 19:41 37.46849 15.06695 33 ft 11 kts 264°
2026-05-06 19:41 37.46840 15.06581 34 ft 13 kts 264°
2026-05-06 19:42 37.46830 15.06464 34 ft 15 kts 264°
2026-05-06 19:42 37.46820 15.06350 35 ft 12 kts 264°
2026-05-06 19:42 37.46812 15.06257 38 ft 11 kts 264°
2026-05-06 19:42 37.46804 15.06155 40 ft 13 kts 264°
2026-05-06 19:43 37.46794 15.06039 40 ft 13 kts 264°
2026-05-06 19:43 37.46785 15.05934 41 ft 13 kts 264°
2026-05-06 19:43 37.46775 15.05819 43 ft 12 kts 263°
2026-05-06 19:43 37.46766 15.05717 44 ft 14 kts 264°
2026-05-06 19:44 37.46757 15.05599 45 ft 13 kts 265°
2026-05-06 19:44 37.46749 15.05498 44 ft 11 kts 264°
2026-05-06 19:44 37.46737 15.05373 47 ft 16 kts 263°
2026-05-06 19:44 37.46682 15.05268 46 ft 14 kts 223°
2026-05-06 19:45 37.46606 15.05196 46 ft 13 kts 197°
2026-05-06 19:45 37.46565 15.05285 46 ft 26 kts 84°
2026-05-06 19:45 37.46610 15.05820 41 ft 95 kts 84°
2026-05-06 19:45 37.46700 15.06882 68 ft 144 kts 83°
2026-05-06 19:46 37.46798 15.08125 704 ft 142 kts 82°
2026-05-06 19:46 37.46944 15.09359 1345 ft 145 kts 79°
2026-05-06 19:46 37.47125 15.10692 1744 ft 165 kts 82°
2026-05-06 19:46 37.47335 15.12211 2059 ft 187 kts 81°
2026-05-06 19:47 37.47574 15.13933 2331 ft 212 kts 82°
2026-05-06 19:47 37.47842 15.15869 2764 ft 235 kts 82°
2026-05-06 19:47 37.48128 15.17959 3492 ft 244 kts 82°
2026-05-06 19:47 37.48419 15.20079 4343 ft 248 kts 83°
2026-05-06 19:48 37.48718 15.22245 5166 ft 254 kts 83°
2026-05-06 19:48 37.49027 15.24459 5993 ft 259 kts 82°
2026-05-06 19:48 37.49764 15.26561 6769 ft 272 kts 53°
2026-05-06 19:48 37.51304 15.27975 7483 ft 283 kts 20°
2026-05-06 19:49 37.53275 15.28254 8000 ft 298 kts 352°
2026-05-06 19:49 37.55379 15.27862 8722 ft 305 kts 349°
2026-05-06 19:49 37.57479 15.27392 9520 ft 309 kts 347°
2026-05-06 19:49 37.59605 15.26895 10299 ft 314 kts 347°
2026-05-06 19:50 37.61829 15.26378 10574 ft 337 kts 347°
2026-05-06 19:50 37.64191 15.25843 10794 ft 359 kts 347°
2026-05-06 19:50 37.66714 15.25296 11303 ft 370 kts 347°
2026-05-06 19:50 37.69244 15.24764 11983 ft 374 kts 347°
2026-05-06 19:51 37.71822 15.24226 12706 ft 377 kts 346°
2026-05-06 19:51 37.74422 15.23681 13433 ft 380 kts 346°
2026-05-06 19:51 37.77052 15.23125 14120 ft 383 kts 345°
2026-05-06 19:51 37.79676 15.22569 14762 ft 385 kts 345°
2026-05-06 19:52 37.82342 15.22000 15412 ft 388 kts 345°
2026-05-06 19:52 37.85026 15.21428 16050 ft 390 kts 345°
2026-05-06 19:52 37.87716 15.20854 16688 ft 393 kts 345°
2026-05-06 19:52 37.90408 15.20280 17336 ft 395 kts 345°
2026-05-06 19:53 37.93118 15.19703 17979 ft 397 kts 345°
2026-05-06 19:53 37.95864 15.19117 18525 ft 398 kts 345°
2026-05-06 19:53 37.98612 15.18531 18978 ft 402 kts 345°
2026-05-06 19:53 38.01341 15.17951 19438 ft 405 kts 346°
2026-05-06 19:54 38.04132 15.17355 19894 ft 408 kts 346°
2026-05-06 19:54 38.06949 15.16756 20320 ft 412 kts 346°
2026-05-06 19:54 38.09793 15.16148 20826 ft 415 kts 346°
2026-05-06 19:54 38.12651 15.15533 21340 ft 418 kts 346°
2026-05-06 19:55 38.15529 15.14913 21786 ft 421 kts 346°
2026-05-06 19:55 38.18432 15.14288 22229 ft 425 kts 346°
2026-05-06 19:55 38.21357 15.13659 22669 ft 428 kts 347°
2026-05-06 19:55 38.24299 15.13029 23102 ft 431 kts 347°
2026-05-06 19:56 38.27273 15.12392 23540 ft 434 kts 347°
2026-05-06 19:56 38.30260 15.11753 23896 ft 437 kts 347°
2026-05-06 19:56 38.33263 15.11107 24259 ft 439 kts 347°
2026-05-06 19:56 38.36289 15.10455 24621 ft 442 kts 347°
2026-05-06 19:57 38.39328 15.09802 24978 ft 444 kts 347°
2026-05-06 19:57 38.42382 15.09145 25326 ft 446 kts 347°
2026-05-06 19:57 38.45455 15.08478 25673 ft 448 kts 347°
2026-05-06 19:57 38.48479 15.07537 26011 ft 447 kts 338°
2026-05-06 19:58 38.51378 15.06115 26351 ft 447 kts 334°
2026-05-06 19:58 38.54249 15.04638 26694 ft 449 kts 334°
2026-05-06 19:58 38.57174 15.03132 27036 ft 451 kts 334°
2026-05-06 19:58 38.60101 15.01631 27369 ft 454 kts 335°
2026-05-06 19:59 38.63021 15.00137 27694 ft 456 kts 335°
2026-05-06 19:59 38.65997 14.98615 28009 ft 458 kts 335°
2026-05-06 19:59 38.68930 14.97114 28312 ft 460 kts 335°
2026-05-06 19:59 38.71934 14.95573 28607 ft 462 kts 335°
2026-05-06 20:00 38.74929 14.94032 28905 ft 464 kts 335°
2026-05-06 20:00 38.77931 14.92485 29201 ft 466 kts 335°
2026-05-06 20:00 38.80950 14.90927 29497 ft 468 kts 335°
2026-05-06 20:00 38.83932 14.89388 29774 ft 470 kts 335°
2026-05-06 20:01 38.86968 14.87822 30138 ft 469 kts 335°
2026-05-06 20:01 38.89992 14.86264 30499 ft 468 kts 335°
2026-05-06 20:01 38.93011 14.84706 30849 ft 467 kts 335°
2026-05-06 20:01 38.96025 14.83147 31192 ft 466 kts 335°
2026-05-06 20:02 38.99031 14.81593 31531 ft 466 kts 335°
2026-05-06 20:02 39.02042 14.80033 31802 ft 465 kts 335°
2026-05-06 20:02 39.05065 14.78465 31979 ft 465 kts 335°
2026-05-06 20:02 39.08032 14.76925 32005 ft 463 kts 335°
2026-05-06 20:03 39.13980 14.73827 32001 ft 462 kts 334°
2026-05-06 20:03 39.19947 14.70712 32008 ft 462 kts 334°
2026-05-06 20:04 39.25900 14.67604 32011 ft 462 kts 334°
2026-05-06 20:04 39.31839 14.64496 32011 ft 462 kts 334°
2026-05-06 20:05 39.37816 14.61367 32026 ft 461 kts 334°
2026-05-06 20:05 39.43756 14.58255 32033 ft 461 kts 334°
2026-05-06 20:06 39.49672 14.55144 32034 ft 461 kts 334°
2026-05-06 20:06 39.55648 14.52112 32030 ft 463 kts 340°
2026-05-06 20:07 39.58832 14.51357 32024 ft 469 kts 354°
2026-05-06 20:07 39.62103 14.51521 31897 ft 471 kts
2026-05-06 20:07 39.65378 14.51874 31115 ft 472 kts
2026-05-06 20:07 39.68632 14.52259 30274 ft 474 kts
2026-05-06 20:08 39.71925 14.52668 29365 ft 475 kts
2026-05-06 20:08 39.75219 14.53086 28538 ft 474 kts
2026-05-06 20:08 39.78499 14.53499 27662 ft 474 kts
2026-05-06 20:08 39.81774 14.53906 26814 ft 473 kts
2026-05-06 20:09 39.85054 14.54310 25935 ft 474 kts
2026-05-06 20:09 39.87275 14.54581 25380 ft 474 kts
2026-05-06 20:09 39.90551 14.54979 24658 ft 472 kts
2026-05-06 20:09 39.93816 14.55376 23870 ft 471 kts
2026-05-06 20:10 39.97079 14.55772 23071 ft 470 kts
2026-05-06 20:10 40.00295 14.56166 22328 ft 467 kts
2026-05-06 20:10 40.03523 14.56562 21641 ft 463 kts
2026-05-06 20:10 40.06717 14.56950 20970 ft 459 kts
2026-05-06 20:11 40.09893 14.57333 20210 ft 458 kts
2026-05-06 20:11 40.13061 14.57719 19538 ft 456 kts
2026-05-06 20:11 40.16181 14.58103 18916 ft 452 kts
2026-05-06 20:11 40.19304 14.58486 18302 ft 449 kts
2026-05-06 20:12 40.22410 14.58862 17501 ft 448 kts
2026-05-06 20:12 40.25549 14.59243 16789 ft 445 kts
2026-05-06 20:12 40.28589 14.59617 16140 ft 442 kts
2026-05-06 20:12 40.31637 14.59997 15514 ft 438 kts
2026-05-06 20:13 40.34661 14.60373 14905 ft 435 kts
2026-05-06 20:13 40.37666 14.60745 14299 ft 432 kts
2026-05-06 20:13 40.40653 14.61113 13687 ft 429 kts
2026-05-06 20:13 40.43616 14.61475 13042 ft 425 kts
2026-05-06 20:14 40.46548 14.61834 12471 ft 420 kts
2026-05-06 20:14 40.49419 14.62190 12113 ft 410 kts
2026-05-06 20:14 40.52220 14.62542 11763 ft 400 kts
2026-05-06 20:14 40.54962 14.62887 11416 ft 390 kts
2026-05-06 20:15 40.57633 14.63222 11072 ft 382 kts
2026-05-06 20:15 40.60224 14.63546 10728 ft 364 kts
2026-05-06 20:15 40.62688 14.63857 10345 ft 347 kts
2026-05-06 20:15 40.65026 14.64150 10104 ft 327 kts
2026-05-06 20:16 40.67240 14.64426 9730 ft 315 kts
2026-05-06 20:16 40.69411 14.64691 9231 ft 312 kts
2026-05-06 20:16 40.71560 14.64952 8952 ft 309 kts
2026-05-06 20:16 40.73686 14.65213 8593 ft 305 kts
2026-05-06 20:17 40.75789 14.65476 8261 ft 301 kts
2026-05-06 20:17 40.77849 14.65735 8064 ft 293 kts
2026-05-06 20:17 40.79829 14.65657 7999 ft 276 kts 347°
2026-05-06 20:17 40.81613 14.65004 8003 ft 258 kts 334°
2026-05-06 20:18 40.83153 14.63946 7930 ft 244 kts 325°
2026-05-06 20:18 40.84592 14.62809 7810 ft 238 kts 325°
2026-05-06 20:18 40.85982 14.61714 7619 ft 228 kts 325°
2026-05-06 20:18 40.87318 14.60664 7358 ft 220 kts 324°
2026-05-06 20:19 40.88620 14.59637 7097 ft 217 kts 324°
2026-05-06 20:19 40.89911 14.58617 6835 ft 216 kts 324°
2026-05-06 20:19 40.91201 14.57592 6568 ft 216 kts 324°
2026-05-06 20:19 40.92476 14.56545 6295 ft 216 kts 323°
2026-05-06 20:20 40.93755 14.55484 5970 ft 215 kts 323°
2026-05-06 20:20 40.95002 14.54450 5612 ft 209 kts 324°
2026-05-06 20:20 40.96169 14.53349 5205 ft 203 kts 311°
2026-05-06 20:20 40.96992 14.51892 4800 ft 195 kts 292°
2026-05-06 20:21 40.97399 14.50208 4334 ft 191 kts 274°
2026-05-06 20:21 40.97376 14.48465 3846 ft 191 kts 257°
2026-05-06 20:21 40.96933 14.46813 3351 ft 192 kts 239°
2026-05-06 20:21 40.96230 14.45308 3009 ft 190 kts 237°
2026-05-06 20:22 40.95553 14.43864 2852 ft 181 kts 237°
2026-05-06 20:22 40.94897 14.42466 2620 ft 178 kts 238°
2026-05-06 20:22 40.94248 14.41084 2368 ft 176 kts 238°
2026-05-06 20:22 40.93609 14.39722 2117 ft 171 kts 238°
2026-05-06 20:23 40.93010 14.38448 1877 ft 156 kts 238°
2026-05-06 20:23 40.92454 14.37263 1650 ft 148 kts 238°
2026-05-06 20:23 40.91915 14.36116 1426 ft 145 kts 238°
2026-05-06 20:23 40.91385 14.34990 1205 ft 144 kts 237°
2026-05-06 20:24 40.90860 14.33874 991 ft 142 kts 237°
2026-05-06 20:24 40.90340 14.32766 777 ft 141 kts 236°
2026-05-06 20:24 40.89824 14.31665 555 ft 140 kts 236°
2026-05-06 20:24 40.89314 14.30577 333 ft 139 kts 235°
2026-05-06 20:25 40.88820 14.29539 252 ft 116 kts 237°
2026-05-06 20:25 40.88539 14.28941 272 ft 53 kts 238°
2026-05-06 20:25 40.88371 14.28589 283 ft 36 kts 234°
2026-05-06 20:25 40.88236 14.28429 287 ft 23 kts 211°
2026-05-06 20:26 40.88134 14.28355 291 ft 13 kts 208°
2026-05-06 20:26 40.88102 14.28332 291 ft 0 kts 209°
2026-05-06 20:26 40.88098 14.28329 292 ft 2 kts 210°
2026-05-06 20:26 40.88075 14.28299 294 ft 7 kts 239°
2026-05-06 20:27 40.88059 14.28222 294 ft 9 kts 245°
2026-05-06 20:27 40.88033 14.28164 299 ft 7 kts 237°
2026-05-06 20:27 40.87996 14.28136 297 ft 6 kts 184°
2026-05-06 20:27 40.87947 14.28151 298 ft 8 kts 170°
2026-05-06 20:28 40.87902 14.28160 298 ft 3 kts 156°
2026-05-06 20:28 40.87895 14.28164 300 ft 1 kts 155°
2026-05-06 20:28 40.87889 14.28167 299 ft 0 kts 160°